• en Suisse
  • Liste des pays
  • À 7 jours
  • Température de l'eau
  • Carte satellitaire
  • Carte météo
  • Widgets météo
  • user-avatar
    Se connecter

    Météo par heure à Førde

    Ce jour, 16 Octobre, Mardi

    Heure Température Précipitation Vent Pression Humidité
    00:00 +1°C° 0 mm 3 m/s 709 mmHg 85%
    01:00 +1°C° 0 mm 3 m/s 709 mmHg 83%
    02:00 +1°C° 0 mm 3 m/s 709 mmHg 81%
    03:00 +2°C° 0 mm 2 m/s 709 mmHg 79%
    04:00 +2°C° 0 mm 2 m/s 709 mmHg 77%
    05:00 +3°C° 0 mm 2 m/s 708 mmHg 75%
    06:00 +3°C° 0 mm 2 m/s 708 mmHg 73%
    07:00 +3°C° 0 mm 3 m/s 708 mmHg 69%
    08:00 +4°C° 0 mm 3 m/s 708 mmHg 66%
    09:00 +4°C° 0 mm 3 m/s 708 mmHg 63%
    10:00 +7°C° 0 mm 3 m/s 708 mmHg 59%
    11:00 +8°C° 0 mm 3 m/s 707 mmHg 55%
    12:00 +8°C° 0 mm 4 m/s 707 mmHg 51%
    13:00 +7°C° 0 mm 4 m/s 707 mmHg 54%
    14:00 +7°C° 0 mm 4 m/s 706 mmHg 56%
    15:00 +7°C° 0 mm 5 m/s 706 mmHg 59%
    16:00 +6°C° 0 mm 5 m/s 706 mmHg 59%
    17:00 +6°C° 0 mm 5 m/s 705 mmHg 59%
    18:00 +5°C° 0 mm 5 m/s 705 mmHg 59%
    19:00 +5°C° 0.1 mm 5 m/s 705 mmHg 61%
    20:00 +4°C° 0.1 mm 6 m/s 704 mmHg 64%
    21:00 +4°C° 0.1 mm 6 m/s 704 mmHg 66%
    22:00 +4°C° 0.4 mm 6 m/s 704 mmHg 70%
    23:00 +4°C° 0.4 mm 6 m/s 704 mmHg 74%

    Demain, 17 Octobre, Mercredi

    Heure Température Précipitation Vent Pression Humidité
    00:00 +4°C° 0.4 mm 6 m/s 703 mmHg 79%
    01:00 +4°C° 1 mm 6 m/s 704 mmHg 83%
    02:00 +5°C° 1 mm 5 m/s 704 mmHg 88%
    03:00 +6°C° 1 mm 5 m/s 704 mmHg 92%
    04:00 +6°C° 0.8 mm 5 m/s 704 mmHg 93%
    05:00 +5°C° 0.8 mm 6 m/s 704 mmHg 95%
    06:00 +5°C° 0.8 mm 6 m/s 704 mmHg 96%
    07:00 +5°C° 0.6 mm 6 m/s 705 mmHg 95%
    08:00 +5°C° 0.6 mm 6 m/s 705 mmHg 94%
    09:00 +5°C° 0.6 mm 6 m/s 706 mmHg 93%
    10:00 +5°C° 0.5 mm 6 m/s 706 mmHg 93%
    11:00 +6°C° 0.5 mm 5 m/s 706 mmHg 92%
    12:00 +6°C° 0.5 mm 5 m/s 707 mmHg 92%
    13:00 +6°C° 0.2 mm 5 m/s 707 mmHg 90%
    14:00 +5°C° 0.2 mm 5 m/s 707 mmHg 89%
    15:00 +5°C° 0.2 mm 5 m/s 708 mmHg 87%
    16:00 +5°C° 0.2 mm 5 m/s 708 mmHg 87%
    17:00 +3°C° 0.2 mm 5 m/s 708 mmHg 88%
    18:00 +3°C° 0.2 mm 5 m/s 709 mmHg 88%
    19:00 +3°C° 0.3 mm 5 m/s 709 mmHg 88%
    20:00 +3°C° 0.3 mm 5 m/s 710 mmHg 88%
    21:00 +3°C° 0.3 mm 5 m/s 710 mmHg 88%
    22:00 +3°C° 0.4 mm 5 m/s 710 mmHg 88%
    23:00 +2°C° 0.4 mm 5 m/s 710 mmHg 89%

    Après-demain, 18 Octobre, Jeudi

    Heure Température Précipitation Vent Pression Humidité
    00:00 +2°C° 0.4 mm 5 m/s 711 mmHg 89%
    01:00 +2°C° 0.4 mm 5 m/s 711 mmHg 90%
    02:00 +2°C° 0.4 mm 5 m/s 711 mmHg 90%
    03:00 +3°C° 0.4 mm 4 m/s 711 mmHg 90%
    04:00 +3°C° 0.2 mm 4 m/s 711 mmHg 90%
    05:00 +3°C° 0.2 mm 4 m/s 712 mmHg 90%
    06:00 +3°C° 0.2 mm 4 m/s 712 mmHg 90%
    07:00 +3°C° 0.2 mm 4 m/s 712 mmHg 88%
    08:00 +3°C° 0.2 mm 4 m/s 713 mmHg 86%
    09:00 +3°C° 0.2 mm 3 m/s 713 mmHg 84%
    10:00 +3°C° 0.1 mm 3 m/s 714 mmHg 82%
    11:00 +3°C° 0.1 mm 3 m/s 714 mmHg 81%
    12:00 +3°C° 0.1 mm 3 m/s 714 mmHg 80%
    13:00 +4°C° 0.1 mm 2 m/s 715 mmHg 80%
    14:00 +4°C° 0.1 mm 2 m/s 715 mmHg 81%
    15:00 +4°C° 0.1 mm 2 m/s 715 mmHg 82%
    16:00 +3°C° 0 mm 2 m/s 715 mmHg 85%
    17:00 +2°C° 0 mm 2 m/s 715 mmHg 87%
    18:00 +2°C° 0 mm 2 m/s 715 mmHg 89%
    19:00 +2°C° 0 mm 2 m/s 715 mmHg 90%
    20:00 +1°C° 0 mm 2 m/s 715 mmHg 90%
    21:00 +2°C° 0 mm 1 m/s 715 mmHg 91%
    22:00 +1°C° 0 mm 2 m/s 715 mmHg 91%
    23:00 +1°C° 0 mm 2 m/s 715 mmHg 91%

    19 Octobre, Vendredi

    Heure Température Précipitation Vent Pression Humidité
    00:00 +1°C° 0 mm 2 m/s 715 mmHg 91%
    01:00 +1°C° 0 mm 2 m/s 715 mmHg 91%
    02:00 +1°C° 0 mm 2 m/s 714 mmHg 91%
    03:00 0°C° 0 mm 3 m/s 714 mmHg 90%
    04:00 0°C° 0 mm 3 m/s 714 mmHg 90%
    05:00 0°C° 0 mm 3 m/s 713 mmHg 90%
    06:00 0°C° 0 mm 3 m/s 713 mmHg 90%
    07:00 0°C° 0 mm 4 m/s 713 mmHg 87%
    08:00 0°C° 0 mm 4 m/s 713 mmHg 84%
    09:00 +1°C° 0 mm 5 m/s 713 mmHg 81%
    10:00 +1°C° 0 mm 5 m/s 712 mmHg 80%
    11:00 +2°C° 0 mm 6 m/s 712 mmHg 78%
    12:00 +2°C° 0 mm 6 m/s 712 mmHg 76%
    13:00 +2°C° 0.5 mm 6 m/s 711 mmHg 79%
    14:00 +2°C° 0.5 mm 6 m/s 711 mmHg 82%
    15:00 +2°C° 0.5 mm 6 m/s 711 mmHg 85%
    16:00 +2°C° 1.6 mm 6 m/s 711 mmHg 88%
    17:00 +2°C° 1.6 mm 5 m/s 711 mmHg 90%
    18:00 +1°C° 1.6 mm 4 m/s 711 mmHg 93%
    19:00 +3°C° 0.4 mm 4 m/s 711 mmHg 94%
    20:00 +3°C° 0.4 mm 4 m/s 711 mmHg 95%
    21:00 +3°C° 0.4 mm 3 m/s 712 mmHg 95%
    22:00 +3°C° 0.2 mm 3 m/s 712 mmHg 95%
    23:00 +3°C° 0.2 mm 3 m/s 712 mmHg 94%

    20 Octobre, Samedi

    Heure Température Précipitation Vent Pression Humidité
    00:00 +3°C° 0.2 mm 3 m/s 713 mmHg 94%
    01:00 +2°C° 0.1 mm 3 m/s 713 mmHg 94%
    02:00 +2°C° 0.1 mm 3 m/s 713 mmHg 94%
    03:00 +2°C° 0.1 mm 3 m/s 713 mmHg 93%
    04:00 +1°C° 0 mm 4 m/s 713 mmHg 93%
    05:00 +1°C° 0 mm 4 m/s 713 mmHg 93%
    06:00 +1°C° 0 mm 4 m/s 713 mmHg 93%
    07:00 +1°C° 0.2 mm 4 m/s 712 mmHg 92%
    08:00 +3°C° 0.2 mm 4 m/s 712 mmHg 91%
    09:00 +2°C° 0.2 mm 5 m/s 712 mmHg 91%
    10:00 +2°C° 0.3 mm 5 m/s 711 mmHg 90%
    11:00 +2°C° 0.3 mm 5 m/s 711 mmHg 90%
    12:00 +2°C° 0.3 mm 5 m/s 710 mmHg 89%
    13:00 +2°C° 0.5 mm 5 m/s 710 mmHg 89%
    14:00 +2°C° 0.5 mm 5 m/s 709 mmHg 89%
    15:00 +2°C° 0.5 mm 5 m/s 709 mmHg 89%
    16:00 +3°C° 0.5 mm 5 m/s 709 mmHg 90%
    17:00 +3°C° 0.5 mm 5 m/s 709 mmHg 91%
    18:00 +3°C° 0.5 mm 5 m/s 709 mmHg 92%
    19:00 +5°C° 0.9 mm 5 m/s 708 mmHg 94%
    20:00 +5°C° 0.9 mm 5 m/s 708 mmHg 95%
    21:00 +6°C° 0.9 mm 5 m/s 708 mmHg 97%
    22:00 +6°C° 1.6 mm 5 m/s 708 mmHg 97%
    23:00 +7°C° 1.6 mm 5 m/s 708 mmHg 97%

    21 Octobre, Dimanche

    Heure Température Précipitation Vent Pression Humidité
    00:00 +7°C° 1.6 mm 5 m/s 708 mmHg 98%
    01:00 +7°C° 1.5 mm 5 m/s 708 mmHg 98%
    02:00 +7°C° 1.5 mm 5 m/s 707 mmHg 98%
    03:00 +7°C° 1.5 mm 5 m/s 707 mmHg 98%
    04:00 +7°C° 3.6 mm 5 m/s 707 mmHg 98%
    05:00 +6°C° 3.6 mm 4 m/s 707 mmHg 98%
    06:00 +6°C° 3.6 mm 4 m/s 707 mmHg 98%
    07:00 +6°C° 2.5 mm 4 m/s 707 mmHg 98%
    08:00 +5°C° 2.5 mm 4 m/s 707 mmHg 97%
    09:00 +5°C° 2.5 mm 4 m/s 707 mmHg 97%
    10:00 +5°C° 1.6 mm 4 m/s 706 mmHg 97%
    11:00 +4°C° 1.6 mm 4 m/s 706 mmHg 97%
    12:00 +4°C° 1.6 mm 4 m/s 706 mmHg 97%
    13:00 +3°C° 1.8 mm 5 m/s 706 mmHg 96%
    14:00 +3°C° 1.8 mm 5 m/s 705 mmHg 96%
    15:00 +2°C° 1.8 mm 5 m/s 705 mmHg 96%
    16:00 +2°C° 1.9 mm 6 m/s 705 mmHg 96%
    17:00 +2°C° 1.9 mm 6 m/s 704 mmHg 95%
    18:00 +2°C° 1.9 mm 6 m/s 704 mmHg 95%
    19:00 0°C° 1.1 mm 7 m/s 704 mmHg 92%
    20:00 0°C° 1.1 mm 8 m/s 704 mmHg 89%
    21:00 0°C° 1.1 mm 8 m/s 704 mmHg 86%
    22:00 -1°C° 0.7 mm 9 m/s 704 mmHg 85%
    23:00 -1°C° 0.7 mm 9 m/s 704 mmHg 85%
    Voir plus